Weather History for Junction, TX

Change the Weather History Date:

Thursday, January 24, 2013

  Actual Average Record
Temperature  
Mean Temperature 66 °F -  
Max Temperature 84 °F 60 °F 84 °F (2013)
Min Temperature 48 °F 34 °F 21 °F (2003)
Cooling Degree Days 1    
Growing Degree Days 16 (Base 50)    
Moisture  
Dew Point 50 °F    
Average Humidity 68    
Maximum Humidity 96    
Minimum Humidity 17    
Precipitation  
Precipitation 0.00 in - - ()
Sea Level Pressure  
Sea Level Pressure 30.12 in    
Wind  
Wind Speed 3 mph (SW)    
Max Wind Speed 12 mph    
Max Gust Speed 20 mph    
Visibility 6 miles    
Events Fog    
Averages and records for this station are not official NWS values.
T = Trace of Precipitation, MM = Missing Value Source: NWS Daily Summary

Daily Weather History Graph

Daily Weather History Graph

Search for Another Location

Airport:

Trip Planner

Search our weather history database for the weather conditions in past years. The results will help you decide how hot, cold, wet, or windy it might be!

Date:

Astronomy

Jan. 24, 2013 Rise Set
Actual Time 7:34 AM CST 6:08 PM CST
Civil Twilight 7:08 AM CST 6:34 PM CST
Nautical Twilight 6:39 AM CST 7:03 PM CST
Astronomical Twilight 6:10 AM CST 7:32 PM CST
Moon 4:14 PM CST (1/24) 5:30 AM CST (1/24)
Length of Visible Light 11h 25m
Length of Day
10h 34m
Waxing Gibbous, 94% of the Moon is Illuminated
Jan 24
Waxing Gibbous
Jan 26
Full
Feb 3
Last Quarter
Feb 10
New
Feb 17
First Quarter

Hourly Weather History & Observations

Time (CST) Temp. Dew Point Humidity Pressure Visibility Wind Dir Wind Speed Gust Speed Precip Events Conditions
12:51 AM 55.9 °F 51.1 °F 84% 30.14 in 8.0 mi Calm Calm - N/A   Clear
1:51 AM 59.0 °F 52.0 °F 78% 30.12 in 8.0 mi Calm Calm - N/A   Clear
2:51 AM 57.0 °F 52.0 °F 83% 30.13 in 8.0 mi Calm Calm - N/A   Clear
3:51 AM 57.0 °F 52.0 °F 83% 30.12 in 8.0 mi Calm Calm - N/A   Clear
4:51 AM 57.0 °F 52.0 °F 83% 30.13 in 7.0 mi Calm Calm - N/A   Clear
5:51 AM 55.9 °F 53.1 °F 90% 30.14 in 7.0 mi WNW 3.5 mph - N/A   Clear
6:51 AM 53.1 °F 51.1 °F 93% 30.15 in 5.0 mi Calm Calm - N/A   Clear
7:19 AM 50.0 °F 48.2 °F 94% 30.22 in 1.8 mi Calm Calm - N/A   Clear
7:27 AM 48.2 °F 46.4 °F 93% 30.22 in 0.5 mi Calm Calm - N/A Fog Fog
7:51 AM 50.0 °F 48.9 °F 96% 30.17 in 0.2 mi Calm Calm - N/A Fog Fog
8:11 AM 48.2 °F 46.4 °F 93% 30.23 in 1.2 mi WNW 3.5 mph - N/A   Partly Cloudy
8:17 AM 50.0 °F 48.2 °F 94% 30.23 in 3.0 mi WNW 3.5 mph - N/A   Clear
8:24 AM 50.0 °F 48.2 °F 94% 30.24 in 3.0 mi WNW 3.5 mph - N/A   Scattered Clouds
8:36 AM 51.8 °F 50.0 °F 94% 30.24 in 3.0 mi Calm Calm - N/A   Mostly Cloudy
8:51 AM 51.1 °F 50.0 °F 96% 30.18 in 3.0 mi Calm Calm - N/A   Overcast
9:26 AM 57.2 °F 53.6 °F 88% 30.25 in 5.0 mi Calm Calm - N/A   Overcast
9:51 AM 61.0 °F 55.9 °F 83% 30.18 in 6.0 mi WSW 4.6 mph - N/A   Haze
10:51 AM 66.9 °F 55.9 °F 68% 30.18 in 8.0 mi SW 10.4 mph - N/A   Clear
11:51 AM 73.0 °F 55.0 °F 53% 30.15 in 7.0 mi SW 6.9 mph - N/A   Clear
12:51 PM 77.0 °F 51.1 °F 40% 30.11 in 8.0 mi SW 11.5 mph - N/A   Clear
1:51 PM 81.0 °F 48.9 °F 33% 30.06 in 9.0 mi Variable 6.9 mph - N/A   Clear
2:51 PM 84.0 °F 43.0 °F 24% 30.02 in 10.0 mi SW 11.5 mph 18.4 mph N/A   Clear
3:51 PM 82.9 °F 44.1 °F 25% 30.01 in 9.0 mi SSW 10.4 mph 19.6 mph N/A   Clear
4:51 PM 82.0 °F 44.1 °F 26% 30.00 in 9.0 mi SW 10.4 mph - N/A   Clear
5:51 PM 79.0 °F 42.1 °F 27% 30.01 in 9.0 mi SSW 8.1 mph - N/A   Clear
6:51 PM 73.9 °F 46.0 °F 37% 30.04 in 10.0 mi SSW 9.2 mph - N/A   Clear
7:51 PM 70.0 °F 48.0 °F 46% 30.06 in 9.0 mi South 10.4 mph - N/A   Clear
8:51 PM 64.0 °F 48.9 °F 58% 30.07 in 9.0 mi SSE 3.5 mph - N/A   Clear
9:51 PM 64.9 °F 53.1 °F 65% 30.06 in 8.0 mi SE 3.5 mph - N/A   Clear
10:51 PM 61.0 °F 53.1 °F 75% 30.06 in 8.0 mi Calm Calm - N/A   Clear
11:51 PM 59.0 °F 52.0 °F 78% 30.05 in 7.0 mi Calm Calm - N/A   Clear